Location: Boiro
(42.6475°N, 8.8834°W)
Time: 01:14:55
(UTC+01:00)

Tiros 1 despin weight - Pass Details

Date: 04 December 2021
Orbit: 592 x 641 km, 48.2° (Epoch: 23 January)

Event Time Altitude Azimuth Distance (km) Brightness Sun altitude
Rises 19:43:17 0° 295° (WNW) 2,826 ? -18.0°
Reaches altitude 10° 19:45:34 10° 294° (WNW) 1,923 ? -18.4°
Maximum altitude 19:49:59 79° 208° (SSW) 609 ? -19.2°
Enters shadow 19:51:51 34° 127° (SE) 990 ? -19.5°
Drops below altitude 10° 19:54:24 10° 123° (ESE) 1,931 - -20.0°
Sets 19:56:42 0° 122° (ESE) 2,838 - -20.4°
